This is the latest recevied weather packets stored in our database for station/object CRYC. If no packets are shown the sender has not sent any weather packets the latest 10 day(s).
| Time | Temp. | Humidity | Pressure | Rain* | Wind** | Luminosity | Snow |
|---|---|---|---|---|---|---|---|
| 1778086836 | 19.44° C | - | - | 0 mm | 7.6 m/s, 252° | - | - |
| 1778086232 | 21.67° C | - | - | 0 mm | 6.71 m/s, 250° | - | - |
| 1778085629 | 20° C | - | - | 0 mm | 4.02 m/s, 170° | - | - |
| 1778085018 | 17.78° C | - | - | 0 mm | 2.24 m/s, 250° | - | - |
| 1778084406 | 18.33° C | - | - | 0 mm | 2.68 m/s, 222° | - | - |
| 1778083802 | 18.89° C | - | - | 0 mm | 2.24 m/s, 231° | - | - |
| 1778083198 | 18.89° C | - | - | 0 mm | 1.34 m/s, 158° | - | - |
| 1778082592 | 18.89° C | - | - | 0 mm | 1.34 m/s, 184° | - | - |
| 1778081381 | 17.78° C | - | - | 0 mm | 5.36 m/s, 257° | - | - |
| 1778080775 | 18.33° C | - | - | 0 mm | 3.58 m/s, 274° | - | - |
| 1778080173 | 18.89° C | - | - | 0 mm | 3.13 m/s, 274° | - | - |
| 1778079563 | 18.33° C | - | - | 0 mm | 4.02 m/s, 222° | - | - |
| 1778078955 | 18.89° C | - | - | 0 mm | 2.68 m/s, 228° | - | - |
| 1778078346 | 18.89° C | - | - | 0 mm | 4.92 m/s, 252° | - | - |
| 1778077740 | 18.89° C | - | - | 0 mm | 5.36 m/s, 238° | - | - |
| 1778076522 | 20° C | - | - | 0 mm | 4.92 m/s, 215° | - | - |
| 1778075917 | 20° C | - | - | 0 mm | 4.47 m/s, 249° | - | - |
| 1778075310 | 19.44° C | - | - | 0 mm | 4.92 m/s, 238° | - | - |
| 1778074702 | 20° C | - | - | 0 mm | 2.68 m/s, 284° | - | - |
| 1778074098 | 20° C | - | - | 0 mm | 5.81 m/s, 252° | - | - |
| 1778073493 | 21.11° C | - | - | 0 mm | 4.02 m/s, 233° | - | - |
| 1778072889 | 20.56° C | - | - | 0 mm | 4.47 m/s, 246° | - | - |
| 1778072283 | 20° C | - | - | 0 mm | 3.58 m/s, 259° | - | - |
| 1778071678 | 20° C | - | - | 0 mm | 4.02 m/s, 232° | - | - |
| 1778071073 | 19.44° C | - | - | 0 mm | 8.94 m/s, 249° | - | - |
* Rain latest hour (hover to see other rain measurements)
** Current wind speed in m/s (hover to see current wind gust speed)